EN

Hourly Weather Brudzewice

Today, 20 April, Tuesday

Time Temperature Precipitation Wind Pressure Humidity
00:00 +8°C° 0 mm 3 mps 757 mmHg 70%
01:00 +7°C° 0 mm 2 mps 757 mmHg 72%
02:00 +7°C° 0 mm 2 mps 757 mmHg 72%
03:00 +6°C° 0 mm 2 mps 757 mmHg 73%
04:00 +6°C° 0 mm 2 mps 757 mmHg 73%
05:00 +6°C° 0 mm 2 mps 757 mmHg 70%
06:00 +7°C° 0 mm 2 mps 757 mmHg 67%
07:00 +9°C° 0 mm 1 mps 757 mmHg 64%
08:00 +11°C° 0 mm 1 mps 757 mmHg 59%
09:00 +13°C° 0 mm 1 mps 756 mmHg 54%
10:00 +15°C° 0 mm 1 mps 756 mmHg 48%
11:00 +16°C° 0 mm 2 mps 756 mmHg 46%
12:00 +16°C° 0 mm 2 mps 756 mmHg 43%
13:00 +17°C° 0 mm 2 mps 755 mmHg 40%
14:00 +17°C° 0 mm 3 mps 755 mmHg 40%
15:00 +17°C° 0 mm 3 mps 755 mmHg 41%
16:00 +16°C° 0 mm 3 mps 754 mmHg 42%
17:00 +13°C° 0 mm 3 mps 754 mmHg 53%
18:00 +11°C° 0 mm 3 mps 755 mmHg 64%
19:00 +9°C° 0 mm 3 mps 755 mmHg 75%
20:00 +8°C° 0 mm 3 mps 755 mmHg 79%
21:00 +7°C° 0 mm 2 mps 755 mmHg 83%
22:00 +6°C° 0 mm 2 mps 755 mmHg 87%
23:00 +6°C° 0 mm 2 mps 754 mmHg 87%

Tomorrow, 21 April, Wednesday

Time Temperature Precipitation Wind Pressure Humidity
00:00 +5°C° 0 mm 2 mps 754 mmHg 88%
01:00 +5°C° 0 mm 2 mps 754 mmHg 88%
02:00 +5°C° 0 mm 2 mps 754 mmHg 89%
03:00 +4°C° 0 mm 2 mps 754 mmHg 89%
04:00 +4°C° 0 mm 2 mps 754 mmHg 90%
05:00 +5°C° 0 mm 2 mps 754 mmHg 85%
06:00 +6°C° 0 mm 2 mps 754 mmHg 80%
07:00 +7°C° 0 mm 2 mps 754 mmHg 74%
08:00 +9°C° 0 mm 2 mps 754 mmHg 67%
09:00 +11°C° 0 mm 3 mps 754 mmHg 60%
10:00 +13°C° 0 mm 3 mps 754 mmHg 52%
11:00 +14°C° 0 mm 4 mps 753 mmHg 50%
12:00 +14°C° 0 mm 4 mps 753 mmHg 47%
13:00 +15°C° 0 mm 5 mps 753 mmHg 45%
14:00 +14°C° 0.1 mm 5 mps 753 mmHg 51%
15:00 +13°C° 0.1 mm 5 mps 752 mmHg 58%
16:00 +11°C° 0.1 mm 6 mps 752 mmHg 65%
17:00 +9°C° 0.2 mm 5 mps 753 mmHg 71%
18:00 +7°C° 0.2 mm 4 mps 753 mmHg 76%
19:00 +5°C° 0.2 mm 4 mps 753 mmHg 82%
20:00 +5°C° 0 mm 4 mps 753 mmHg 82%
21:00 +4°C° 0 mm 4 mps 753 mmHg 82%
22:00 +3°C° 0 mm 4 mps 753 mmHg 82%
23:00 +1°C° 0 mm 5 mps 753 mmHg 83%

Day after tomorrow, 22 April, Thursday

Time Temperature Precipitation Wind Pressure Humidity
00:00 +1°C° 0 mm 5 mps 753 mmHg 83%
01:00 0°C° 0 mm 5 mps 753 mmHg 83%
02:00 -1°C° 0 mm 6 mps 753 mmHg 82%
03:00 -1°C° 0 mm 6 mps 753 mmHg 80%
04:00 -1°C° 0 mm 6 mps 753 mmHg 79%
05:00 +1°C° 0 mm 6 mps 753 mmHg 78%
06:00 0°C° 0 mm 7 mps 753 mmHg 77%
07:00 +2°C° 0 mm 7 mps 753 mmHg 75%
08:00 +1°C° 0.3 mm 6 mps 753 mmHg 81%
09:00 +1°C° 0.3 mm 6 mps 753 mmHg 88%
10:00 +1°C° 0.3 mm 6 mps 753 mmHg 94%
11:00 +3°C° 0.4 mm 6 mps 754 mmHg 82%
12:00 +4°C° 0.4 mm 6 mps 754 mmHg 70%
13:00 +6°C° 0.4 mm 7 mps 754 mmHg 58%
14:00 +7°C° 0.3 mm 6 mps 754 mmHg 58%
15:00 +7°C° 0.3 mm 6 mps 754 mmHg 58%
16:00 +5°C° 0.3 mm 6 mps 755 mmHg 58%
17:00 +5°C° 0.1 mm 5 mps 755 mmHg 61%
18:00 +4°C° 0.1 mm 4 mps 755 mmHg 64%
19:00 +3°C° 0.1 mm 4 mps 755 mmHg 68%
20:00 +3°C° 0 mm 4 mps 755 mmHg 68%
21:00 +2°C° 0 mm 5 mps 755 mmHg 68%
22:00 +2°C° 0 mm 5 mps 755 mmHg 69%
23:00 +2°C° 0.1 mm 6 mps 756 mmHg 70%

23 April, Friday

Time Temperature Precipitation Wind Pressure Humidity
00:00 +1°C° 0.1 mm 6 mps 756 mmHg 72%
01:00 +1°C° 0.1 mm 6 mps 756 mmHg 73%
02:00 +1°C° 0 mm 5 mps 757 mmHg 76%
03:00 +1°C° 0 mm 5 mps 757 mmHg 79%
04:00 0°C° 0 mm 5 mps 757 mmHg 81%
05:00 +1°C° 0 mm 5 mps 758 mmHg 79%
06:00 +2°C° 0 mm 5 mps 758 mmHg 77%
07:00 +2°C° 0 mm 5 mps 759 mmHg 75%
08:00 +4°C° 0.1 mm 6 mps 759 mmHg 65%
09:00 +5°C° 0.1 mm 6 mps 759 mmHg 56%
10:00 +8°C° 0.1 mm 7 mps 760 mmHg 47%
11:00 +8°C° 0 mm 6 mps 760 mmHg 41%
12:00 +8°C° 0 mm 6 mps 760 mmHg 35%
13:00 +9°C° 0 mm 5 mps 761 mmHg 30%
14:00 +9°C° 0 mm 5 mps 761 mmHg 31%
15:00 +10°C° 0 mm 4 mps 761 mmHg 33%
16:00 +10°C° 0 mm 4 mps 761 mmHg 34%
17:00 +9°C° 0 mm 3 mps 761 mmHg 42%
18:00 +8°C° 0 mm 2 mps 760 mmHg 51%
19:00 +8°C° 0 mm 1 mps 760 mmHg 59%
20:00 +6°C° 0 mm 2 mps 760 mmHg 64%
21:00 +5°C° 0 mm 2 mps 760 mmHg 70%
22:00 +4°C° 0 mm 2 mps 760 mmHg 75%
23:00 +3°C° 0 mm 3 mps 760 mmHg 79%

24 April, Saturday

Time Temperature Precipitation Wind Pressure Humidity
00:00 +3°C° 0 mm 3 mps 760 mmHg 84%
01:00 +3°C° 0 mm 3 mps 760 mmHg 88%
02:00 +2°C° 0 mm 3 mps 760 mmHg 91%
03:00 +2°C° 0 mm 3 mps 760 mmHg 93%
04:00 +1°C° 0 mm 3 mps 760 mmHg 96%
05:00 +1°C° 0 mm 4 mps 760 mmHg 93%
06:00 +3°C° 0 mm 4 mps 760 mmHg 90%
07:00 +2°C° 0 mm 5 mps 760 mmHg 87%
08:00 +3°C° 0 mm 5 mps 760 mmHg 82%
09:00 +5°C° 0 mm 5 mps 760 mmHg 76%
10:00 +6°C° 0 mm 5 mps 760 mmHg 71%
11:00 +6°C° 0.1 mm 5 mps 760 mmHg 71%
12:00 +6°C° 0.1 mm 5 mps 760 mmHg 71%
13:00 +6°C° 0.1 mm 5 mps 760 mmHg 71%
14:00 +7°C° 0.1 mm 5 mps 761 mmHg 65%
15:00 +7°C° 0.1 mm 5 mps 761 mmHg 60%
16:00 +7°C° 0.1 mm 5 mps 761 mmHg 54%
17:00 +6°C° 0 mm 4 mps 761 mmHg 56%
18:00 +4°C° 0 mm 3 mps 762 mmHg 58%
19:00 +4°C° 0 mm 2 mps 762 mmHg 60%
20:00 +3°C° 0 mm 2 mps 762 mmHg 61%
21:00 +2°C° 0 mm 2 mps 762 mmHg 63%
22:00 +1°C° 0 mm 2 mps 763 mmHg 65%
23:00 +1°C° 0 mm 2 mps 763 mmHg 70%

25 April, Sunday

Time Temperature Precipitation Wind Pressure Humidity
00:00 +1°C° 0 mm 2 mps 763 mmHg 74%
01:00 -1°C° 0 mm 3 mps 763 mmHg 78%
02:00 -1°C° 0 mm 2 mps 763 mmHg 81%
03:00 -1°C° 0 mm 2 mps 763 mmHg 84%
04:00 -1°C° 0 mm 2 mps 764 mmHg 87%
05:00 0°C° 0 mm 3 mps 764 mmHg 80%
06:00 +2°C° 0 mm 3 mps 764 mmHg 73%
07:00 +4°C° 0 mm 3 mps 764 mmHg 66%
08:00 +5°C° 0 mm 4 mps 765 mmHg 56%
09:00 +7°C° 0 mm 4 mps 765 mmHg 47%
10:00 +8°C° 0 mm 5 mps 765 mmHg 37%
11:00 +8°C° 0 mm 5 mps 765 mmHg 36%
12:00 +9°C° 0 mm 5 mps 765 mmHg 35%
13:00 +9°C° 0 mm 5 mps 765 mmHg 34%
14:00 +9°C° 0 mm 5 mps 765 mmHg 35%
15:00 +8°C° 0 mm 5 mps 765 mmHg 36%
16:00 +8°C° 0 mm 5 mps 765 mmHg 37%
17:00 +7°C° 0 mm 4 mps 765 mmHg 45%
18:00 +6°C° 0 mm 2 mps 765 mmHg 52%
19:00 +6°C° 0 mm 1 mps 765 mmHg 59%
20:00 +5°C° 0 mm 1 mps 764 mmHg 60%
21:00 +4°C° 0 mm 1 mps 764 mmHg 60%
22:00 +3°C° 0 mm 1 mps 764 mmHg 61%
23:00 +3°C° 0 mm 1 mps 764 mmHg 62%
Show more

We Need Your Consent

Meteoprog and our Service Providers may store and access personal data such as cookies, device identifiers or other similar technologies on your device and process such data to personalise content and ads, as well as provide social media features and to analyse the traffic.

  • Store and/or access information on your device

    Cookies, device identifiers or other information can be stored or accessed on your device for the purposes indicated above.

  • Personalised ads and content, ad and content measurement, audience insights, and products development

    Ads and content can be personalised based on a profile. More data can be added to better personalise ads and content. Ad and content performance can be measured. Insights about the audience who saw the ads and content can be derived. Such data can be used to develop or improve user’s experience, systems and software.

By clicking ‘I Agree’ you will allow the use of indicated cookies, device identifiers, web beacons or other similar technologies. Your settings can be changed in the browser on your device.

For certain purposes, legitimate interests may be relied on, rather than consent. You can read more about this in our Privacy and Cookie Policy.